Location: Cheadle
(51.0146°N, 113.5417°W)
Time: 05:21:40
(UTC+00:00)

BlueWalker 3 - Pass Details

Date: 17 April 2024
Orbit: 481 x 494 km, 53.2° (Epoch: 28 May)

Event Time Altitude Azimuth Distance (km) Brightness Sun altitude
Exits shadow 10:26:38 12° 155° (SSE) 1,542 4.2 -17.8°
Drops below altitude 10° 10:27:03 10° 152° (SSE) 1,688 4.4 -17.7°
Sets 10:29:21 0° 142° (SE) 2,565 5.5 -17.5°
